Location: *
(33.8528°S, 62.0513°E)
Time: 05:23:10
(UTC+00:00)

Daily predictions for brighter satellites

Satellite Brightness Start Highest point End
(mag) Time Altitude Azimuth Time Altitude Azimuth Time Altitude Azimuth
Okean O Rocket 4.1 00:07:09 10° ENE 00:10:12 19° ESE 00:12:42 12° SSE
Hubble Space Telescope 3.3 00:19:40 15° NNE 00:19:40 15° NNE 00:21:49 10° ENE
DELTA 2 R/B (1) 4.1 00:20:14 52° SE 00:20:14 52° SE 00:25:08 10° E
Cosmos 2237 Rocket 2.5 00:31:05 54° NNW 00:31:05 54° NNW 00:35:31 10° N
Cosmos 2297 Rocket 4.4 00:34:51 11° S 00:34:51 11° S 00:35:09 10° S
CZ-4B DEB 4.2 00:29:49 10° NNE 00:35:18 78° ESE 00:37:38 36° S
Cosmos 2082 4.2 00:37:46 44° S 00:37:46 44° S 00:41:47 10° SSE
Cosmos 1934 Rocket 3.9 00:32:23 26° S 00:36:16 88° W 00:42:30 10° N
Cosmos 2298 Rocket 4.1 00:31:20 10° N 00:36:40 79° ENE 00:42:04 10° SSE
Cosmos 2263 Rocket 4.3 00:36:27 10° NNE 00:41:01 27° ENE 00:45:38 10° SE
PAYLOAD B 4.3 00:36:21 10° NNE 00:41:56 76° ESE 00:45:56 20° S
SL-16 R/B 2.8 00:41:34 21° S 00:45:21 54° ESE 00:50:52 10° NE
Cosmos 1606 4.3 00:41:51 10° NNE 00:45:23 36° E 00:48:59 10° SSE
Cosmos 1605 Rocket 4.2 00:40:07 10° S 00:46:18 70° E 00:52:26 10° NNE
SL-24 R/B 4.5 00:46:32 10° SSE 00:50:48 63° ENE 00:55:11 10° N
Lacrosse 4 Rocket 1.6 00:50:01 29° N 00:51:55 66° ENE 00:55:58 10° SSE
Cosmos 1125 Rocket 4.0 00:49:07 10° N 00:54:17 62° ENE 00:59:33 10° SSE
STARLINK-1194 4.5 00:56:05 33° SSE 00:56:29 34° SE 00:59:50 10° ENE
Atlas Centaur 2 3.7 00:57:22 15° NNW 00:57:22 15° NNW 00:59:45 10° N
Envisat 4.4 00:53:13 10° NE 00:57:53 38° ESE 01:02:37 10° S
STARLINK-1193 4.4 00:57:59 34° SSE 00:58:29 36° SE 01:01:51 10° ENE
STARLINK-1184 4.3 00:59:53 35° SSE 01:00:28 38° SE 01:03:53 10° ENE
Cosmos 1727 Rocket 4.0 00:56:08 10° N 01:02:20 81° E 01:08:40 10° S
STARLINK-1127 4.3 01:01:48 35° SSE 01:02:28 39° SE 01:05:54 10° ENE
BREEZE-M DEB (TANK) 2.8 00:59:21 28° WNW 01:02:43 79° SW 01:06:02 10° SE
STARLINK-1175 4.2 01:03:56 31° NE 01:03:56 31° NE 01:05:29 10° NE
STARLINK-1142 4.2 01:03:44 36° S 01:04:30 41° SE 01:07:58 10° ENE
Cosmos 2227 Rocket 4.2 01:09:48 12° SSW 01:09:48 12° SSW 01:10:31 10° SSW
ATLAS 3B R/B 3.9 01:06:56 24° SW 01:06:56 24° SW 01:12:23 10° S
STARLINK-1137 4.2 01:05:43 36° S 01:06:33 43° SE 01:10:03 10° ENE
STARLINK-1195 4.1 01:07:43 36° S 01:08:39 45° SE 01:12:10 10° ENE
Sich 1 3.0 01:07:45 29° SSW 01:09:56 67° W 01:14:20 10° N
STARLINK-1152 4.0 01:09:44 36° S 01:10:46 48° SE 01:14:17 10° ENE
Cosmos 372 Rocket 4.4 01:11:10 38° WSW 01:11:15 38° WSW 01:16:10 10° S
CZ-4B R/B 3.0 01:09:28 10° N 01:14:48 76° WNW 01:20:10 10° SSW
Helios 1A Rocket 4.1 01:13:57 10° NE 01:17:52 44° ESE 01:21:48 10° S
Cosmos 1515 Rocket 4.4 01:14:33 10° N 01:18:46 52° E 01:23:04 10° SSE
OAO 2 Rocket 4.0 01:18:25 28° WNW 01:20:17 40° NNW 01:24:52 10° NE
USA 215 4.3 01:16:41 10° SSE 01:21:52 25° SSW 01:23:45 22° SW
STARLINK-1228 4.2 01:19:13 10° NNW 01:22:33 46° NE 01:25:56 10° ESE
DELTA 2 R/B(2) 3.8 01:25:59 52° NNW 01:25:59 52° NNW 01:27:59 10° NE
CZ-4 R/B 4.2 01:26:08 10° E 01:28:13 14° ESE 01:30:18 10° SE
BREEZE-M DEB (TANK) 2.3 01:30:51 32° SSW 01:30:51 32° SSW 01:33:17 10° SE
Cosmos 1153 Rocket 4.5 01:26:57 10° S 01:33:17 76° W 01:39:36 10° N
STARLINK-1176 3.3 01:32:36 26° SW 01:34:41 84° NW 01:38:30 10° NE
Cosmos 1666 Rocket 3.7 01:31:29 10° SSW 01:35:44 49° W 01:39:58 10° NNW
Cosmos 1633 Rocket 3.1 01:33:47 10° SSW 01:38:11 58° W 01:42:31 10° N
AQUARIUS 4.1 01:33:41 10° N 01:38:12 81° W 01:42:46 10° SSW
Cosmos 1933 3.5 01:36:53 10° NNW 01:40:46 48° W 01:44:44 10° S
STARLINK-1179 3.4 01:38:34 23° SW 01:40:52 72° NW 01:44:41 10° NE
SEDSat Delta rocket 3.4 01:38:53 14° WNW 01:42:21 52° N 01:46:20 10° E
PSLV R/B 3.8 01:38:46 10° S 01:42:55 67° WSW 01:46:58 10° NNW
GOES 2 Rocket 4.4 01:39:56 11° WNW 01:44:31 48° N 01:50:44 10° E
Okean O Rocket 2.4 01:42:24 10° NNW 01:46:17 31° W 01:50:09 10° SW
Cosmos 1151 Rocket 3.6 01:42:34 10° NNW 01:46:38 36° W 01:50:44 10° SSW
Iridium 96 2.4 01:46:27 10° N 01:48:08 73° W 01:49:16 18° S
USA 267 3.5 01:44:24 10° NE 01:50:55 71° SE 01:57:29 10° SW
SMAP 3.3 01:47:07 10° N 01:51:39 50° W 01:56:14 10° SSW
H-2A R/B 3.8 01:49:03 10° NNW 01:52:06 24° W 01:54:35 13° SW
Meteor 1-20 Rocket 4.4 01:46:14 10° S 01:52:09 85° E 01:57:55 10° N
Cosmos 2173 Rocket 4.0 01:46:13 10° S 01:52:24 87° E 01:58:32 10° N
Cosmos 1238 Rocket 3.0 01:51:17 11° SSW 01:54:06 34° W 01:57:18 10° NNW
SL-8 R/B 3.9 01:49:33 10° WNW 01:54:17 52° SSW 01:59:03 10° SE
ADEOS Rocket 3.5 01:47:50 10° SSE 01:55:03 78° ENE 02:01:26 10° N
Abrixas rocket 2.9 01:55:23 17° W 01:57:01 28° SSW 01:59:40 10° SSE
OAO 3 Copernicus 4.3 01:52:56 15° W 01:57:14 84° S 02:02:21 10° E
Hubble Space Telescope 2.3 01:56:15 10° NW 02:00:00 33° N 02:03:45 10° ENE
Cosmos 1459 Rocket 4.1 01:53:41 10° S 02:00:09 82° W 02:06:30 10° N
Cosmos 1689 Rocket 4.3 02:02:09 11° W 02:02:09 11° W 02:02:19 10° WNW
DELTA 2 R/B (1) 3.8 02:01:00 12° WSW 02:06:13 67° NNW 02:11:47 10° NE
STARLINK-1146 4.0 02:03:25 12° WSW 02:06:25 38° NW 02:09:45 10° NNE
STARLINK-1147 4.0 02:05:05 12° WSW 02:08:10 36° NW 02:11:29 10° NNE
STARLINK-1173 4.2 02:05:38 11° WSW 02:08:53 34° NW 02:12:18 10° NNE
STARLINK-1185 4.2 02:08:31 11° WSW 02:11:44 33° NW 02:14:59 10° NNE
Cosmos 1048 Rocket 4.5 02:07:45 10° SSW 02:12:40 41° W 02:17:35 10° N
STARLINK-1186 4.2 02:10:17 10° WSW 02:13:33 32° NW 02:16:46 10° NNE
STARLINK-1212 2.9 02:11:07 10° NW 02:14:15 62° SW 02:17:25 10° SE
STARLINK-1105 2.9 02:11:35 10° NW 02:14:42 61° SW 02:17:52 10° SE
STARLINK-1247 2.9 02:12:30 10° NW 02:15:37 59° SW 02:18:46 10° SE
STARLINK-1227 2.9 02:12:57 10° NW 02:16:03 58° SW 02:19:13 10° SE
STARLINK-1226 3.0 02:13:52 10° WNW 02:16:58 57° SW 02:20:07 10° SE
STARLINK-1196 4.4 02:14:19 10° WSW 02:17:30 29° NW 02:20:38 10° N
STARLINK-1215 3.0 02:14:46 10° WNW 02:17:52 55° SW 02:21:00 10° SE
COSMO-SKYMED 1 2.7 02:13:39 10° S 02:17:57 52° WSW 02:22:11 10° NNW
Cosmos 494 Rocket 4.1 02:13:41 10° SSW 02:18:53 64° WNW 02:24:04 10° N
CZ-2D R/B 4.2 02:15:13 10° NNE 02:18:56 50° ESE 02:22:41 10° S
STARLINK-1217 3.0 02:16:35 10° WNW 02:19:40 52° SW 02:22:48 10° SE
STARLINK-1234 3.6 02:16:39 10° WNW 02:19:41 36° SW 02:22:44 10° SSE
STARLINK-1168 4.4 02:15:51 10° SW 02:19:57 49° SE 02:24:01 10° ENE
Meteor 2-6 Rocket 4.5 02:15:42 10° N 02:21:17 76° E 02:26:48 10° SSE
